• In Lithuania
  • List of Countries
  • For 7 days
  • Water Temperature
  • Satellite Maps
  • Weather Map
  • Weather Widgets
  • user-avatar
    Login

    Hourly Weather Prutz

    Today, 21 November, Tuesday

    Time Temperature Precipitation Wind Pressure Humidity
    00:00 -3°C° 0 mm 2 mps 632 mmHg 80%
    01:00 -2°C° 0 mm 2 mps 632 mmHg 81%
    02:00 -2°C° 0.2 mm 2 mps 632 mmHg 83%
    03:00 -2°C° 0.2 mm 2 mps 632 mmHg 85%
    04:00 -2°C° 0.2 mm 2 mps 632 mmHg 86%
    05:00 -2°C° 0.3 mm 2 mps 632 mmHg 88%
    06:00 -1°C° 0.3 mm 2 mps 632 mmHg 89%
    07:00 -1°C° 0.3 mm 2 mps 632 mmHg 90%
    08:00 +1°C° 0.1 mm 2 mps 633 mmHg 89%
    09:00 +2°C° 0.1 mm 2 mps 633 mmHg 89%
    10:00 +3°C° 0.1 mm 2 mps 633 mmHg 88%
    11:00 +3°C° 0.1 mm 2 mps 633 mmHg 89%
    12:00 +4°C° 0.1 mm 2 mps 633 mmHg 90%
    13:00 +4°C° 0.1 mm 2 mps 633 mmHg 91%
    14:00 +4°C° 0.2 mm 2 mps 633 mmHg 91%
    15:00 +3°C° 0.2 mm 2 mps 633 mmHg 91%
    16:00 +3°C° 0.2 mm 2 mps 633 mmHg 91%
    17:00 +2°C° 0 mm 2 mps 632 mmHg 90%
    18:00 +1°C° 0 mm 2 mps 632 mmHg 89%
    19:00 -1°C° 0 mm 2 mps 632 mmHg 88%
    20:00 -1°C° 0 mm 2 mps 632 mmHg 85%
    21:00 -1°C° 0 mm 2 mps 632 mmHg 83%
    22:00 -1°C° 0 mm 2 mps 632 mmHg 81%
    23:00 -1°C° 0 mm 2 mps 632 mmHg 77%

    Tomorrow, 22 November, Wednesday

    Time Temperature Precipitation Wind Pressure Humidity
    00:00 -1°C° 0 mm 2 mps 632 mmHg 74%
    01:00 -1°C° 0 mm 2 mps 632 mmHg 71%
    02:00 -1°C° 0 mm 2 mps 632 mmHg 70%
    03:00 -1°C° 0 mm 2 mps 632 mmHg 68%
    04:00 -2°C° 0 mm 2 mps 632 mmHg 66%
    05:00 -2°C° 0 mm 2 mps 632 mmHg 65%
    06:00 -2°C° 0 mm 2 mps 631 mmHg 64%
    07:00 -2°C° 0 mm 2 mps 631 mmHg 64%
    08:00 +1°C° 0 mm 2 mps 632 mmHg 66%
    09:00 +2°C° 0 mm 2 mps 633 mmHg 68%
    10:00 +4°C° 0 mm 2 mps 633 mmHg 71%
    11:00 +5°C° 0 mm 2 mps 633 mmHg 75%
    12:00 +6°C° 0 mm 2 mps 633 mmHg 80%
    13:00 +7°C° 0 mm 2 mps 633 mmHg 85%
    14:00 +6°C° 0 mm 2 mps 632 mmHg 83%
    15:00 +4°C° 0 mm 2 mps 632 mmHg 81%
    16:00 +3°C° 0 mm 2 mps 631 mmHg 80%
    17:00 +2°C° 0 mm 2 mps 631 mmHg 79%
    18:00 +1°C° 0 mm 2 mps 631 mmHg 78%
    19:00 -1°C° 0 mm 2 mps 631 mmHg 78%
    20:00 -1°C° 0 mm 3 mps 631 mmHg 76%
    21:00 -1°C° 0 mm 3 mps 631 mmHg 75%
    22:00 -1°C° 0 mm 3 mps 631 mmHg 74%
    23:00 -1°C° 0 mm 3 mps 631 mmHg 74%

    Day after tomorrow, 23 November, Thursday

    Time Temperature Precipitation Wind Pressure Humidity
    00:00 -1°C° 0 mm 3 mps 631 mmHg 74%
    01:00 -2°C° 0 mm 3 mps 631 mmHg 74%
    02:00 -2°C° 0 mm 3 mps 631 mmHg 74%
    03:00 -2°C° 0 mm 3 mps 631 mmHg 74%
    04:00 -2°C° 0 mm 3 mps 631 mmHg 73%
    05:00 -2°C° 0 mm 3 mps 631 mmHg 72%
    06:00 -2°C° 0 mm 2 mps 631 mmHg 72%
    07:00 -2°C° 0 mm 2 mps 631 mmHg 71%
    08:00 -1°C° 0 mm 2 mps 632 mmHg 70%
    09:00 +2°C° 0 mm 2 mps 633 mmHg 70%
    10:00 +5°C° 0 mm 1 mps 634 mmHg 70%
    11:00 +6°C° 0 mm 1 mps 634 mmHg 73%
    12:00 +7°C° 0 mm 1 mps 634 mmHg 77%
    13:00 +7°C° 0 mm 0 mps 634 mmHg 81%
    14:00 +6°C° 0 mm 1 mps 634 mmHg 77%
    15:00 +5°C° 0 mm 1 mps 634 mmHg 74%
    16:00 +4°C° 0 mm 1 mps 633 mmHg 70%
    17:00 +3°C° 0 mm 1 mps 633 mmHg 69%
    18:00 +2°C° 0 mm 1 mps 634 mmHg 68%
    19:00 +1°C° 0 mm 1 mps 634 mmHg 67%
    20:00 +1°C° 0 mm 1 mps 634 mmHg 66%
    21:00 -1°C° 0 mm 2 mps 634 mmHg 65%
    22:00 -1°C° 0 mm 2 mps 635 mmHg 63%
    23:00 -1°C° 0 mm 2 mps 635 mmHg 63%

    24 November, Friday

    Time Temperature Precipitation Wind Pressure Humidity
    00:00 -2°C° 0 mm 2 mps 635 mmHg 63%
    01:00 -2°C° 0 mm 2 mps 635 mmHg 63%
    02:00 -2°C° 0 mm 2 mps 635 mmHg 64%
    03:00 -2°C° 0 mm 2 mps 634 mmHg 65%
    04:00 -2°C° 0 mm 2 mps 634 mmHg 65%
    05:00 -2°C° 0 mm 2 mps 634 mmHg 66%
    06:00 -2°C° 0 mm 2 mps 634 mmHg 66%
    07:00 -2°C° 0 mm 2 mps 634 mmHg 67%
    08:00 +1°C° 0 mm 2 mps 635 mmHg 68%
    09:00 +2°C° 0 mm 2 mps 635 mmHg 68%
    10:00 +4°C° 0 mm 2 mps 636 mmHg 69%
    11:00 +5°C° 0 mm 2 mps 636 mmHg 71%
    12:00 +6°C° 0 mm 2 mps 636 mmHg 74%
    13:00 +7°C° 0 mm 2 mps 636 mmHg 76%
    14:00 +5°C° 0 mm 2 mps 635 mmHg 76%
    15:00 +4°C° 0 mm 2 mps 635 mmHg 75%
    16:00 +3°C° 0 mm 2 mps 634 mmHg 75%
    17:00 +2°C° 0 mm 2 mps 634 mmHg 74%
    18:00 +1°C° 0 mm 2 mps 634 mmHg 73%
    19:00 +1°C° 0 mm 2 mps 634 mmHg 71%
    20:00 +1°C° 0 mm 2 mps 635 mmHg 70%
    21:00 +1°C° 0 mm 2 mps 635 mmHg 70%
    22:00 0°C° 0 mm 3 mps 635 mmHg 69%
    23:00 0°C° 0 mm 3 mps 635 mmHg 69%

    25 November, Saturday

    Time Temperature Precipitation Wind Pressure Humidity
    00:00 0°C° 0 mm 3 mps 634 mmHg 69%
    01:00 0°C° 0 mm 3 mps 634 mmHg 70%
    02:00 -1°C° 0 mm 3 mps 634 mmHg 71%
    03:00 -1°C° 0 mm 3 mps 634 mmHg 72%
    04:00 -1°C° 0 mm 3 mps 633 mmHg 73%
    05:00 0°C° 0 mm 3 mps 634 mmHg 74%
    06:00 0°C° 0 mm 3 mps 634 mmHg 74%
    07:00 0°C° 0 mm 3 mps 634 mmHg 75%
    08:00 +1°C° 0 mm 3 mps 634 mmHg 76%
    09:00 +2°C° 0 mm 3 mps 634 mmHg 76%
    10:00 +3°C° 0 mm 3 mps 634 mmHg 77%
    11:00 +4°C° 0 mm 3 mps 634 mmHg 79%
    12:00 +5°C° 0 mm 3 mps 634 mmHg 81%
    13:00 +7°C° 0 mm 3 mps 634 mmHg 83%
    14:00 +6°C° 0 mm 2 mps 634 mmHg 85%
    15:00 +5°C° 0 mm 2 mps 634 mmHg 86%
    16:00 +4°C° 0 mm 2 mps 633 mmHg 88%
    17:00 +3°C° 0 mm 2 mps 633 mmHg 88%
    18:00 +3°C° 0 mm 2 mps 633 mmHg 89%
    19:00 +2°C° 0 mm 2 mps 634 mmHg 89%
    20:00 +2°C° 0 mm 2 mps 634 mmHg 89%
    21:00 +1°C° 0 mm 2 mps 634 mmHg 89%
    22:00 +1°C° 0 mm 2 mps 634 mmHg 89%
    23:00 +1°C° 0.1 mm 2 mps 634 mmHg 90%

    26 November, Sunday

    Time Temperature Precipitation Wind Pressure Humidity
    00:00 +2°C° 0.1 mm 1 mps 634 mmHg 91%
    01:00 +2°C° 0.1 mm 1 mps 635 mmHg 91%
    02:00 +2°C° 0.7 mm 1 mps 635 mmHg 93%
    03:00 +2°C° 0.7 mm 1 mps 635 mmHg 94%
    04:00 +2°C° 0.7 mm 1 mps 635 mmHg 95%
    05:00 +1°C° 0.7 mm 1 mps 635 mmHg 95%
    06:00 +1°C° 0.7 mm 1 mps 635 mmHg 95%
    07:00 +1°C° 0.7 mm 1 mps 635 mmHg 95%
    08:00 +1°C° 0.6 mm 1 mps 636 mmHg 94%
    09:00 +1°C° 0.6 mm 1 mps 636 mmHg 94%
    10:00 +1°C° 0.6 mm 1 mps 636 mmHg 93%
    11:00 +1°C° 0.6 mm 1 mps 636 mmHg 92%
    12:00 -2°C° 0.6 mm 2 mps 636 mmHg 92%
    13:00 -2°C° 0.6 mm 2 mps 635 mmHg 91%
    14:00 -2°C° 0.5 mm 2 mps 635 mmHg 91%
    15:00 -3°C° 0.5 mm 2 mps 635 mmHg 91%
    16:00 -3°C° 0.5 mm 2 mps 635 mmHg 92%
    17:00 -4°C° 0.2 mm 2 mps 635 mmHg 92%
    18:00 -5°C° 0.2 mm 2 mps 635 mmHg 92%
    19:00 -6°C° 0.2 mm 2 mps 635 mmHg 93%
    20:00 -6°C° 0.1 mm 2 mps 635 mmHg 92%
    21:00 -7°C° 0.1 mm 2 mps 635 mmHg 92%
    22:00 -7°C° 0.1 mm 2 mps 635 mmHg 91%
    23:00 -7°C° 0.1 mm 2 mps 635 mmHg 91%
    Show more